DW7314 Weather Reports


Display with metric or nautical units.
time (UTC)temp
F
wind
direction
speed
MPH
gust
MPH
rain 1hr
in
rain 24hr
in
rain mn
in
humidity
%
barometer
mb
20260509042043 64 101 0.0 1.0 0.00 0.07 0.00 100 1014.5
20260509041115 64 101 0.0 2.0 0.00 0.07 0.00 100 1014.5
20260509040119 65 157 0.0 1.0 0.00 0.07 0.00 100 1014.4
20260509035041 65 157 0.0 0.0 0.00 0.07 0.07 100 1014.4
20260509034038 65 157 0.0 0.0 0.00 0.07 0.07 100 1014.6
20260509033050 65 157 0.0 0.0 0.00 0.07 0.07 100 1014.8
20260509032044 65 157 0.0 0.0 0.00 0.07 0.07 100 1014.8
20260509031037 65 157 0.0 2.0 0.00 0.07 0.07 100 1015.2
20260509030121 65 44 0.0 2.0 0.00 0.07 0.07 100 1015.3
20260509025046 65 40 0.0 0.0 0.00 0.07 0.07 100 1015.5
20260509024042 65 39 0.0 0.0 0.00 0.07 0.07 100 1015.2
20260509023055 65 40 0.0 0.0 0.00 0.07 0.07 100 1015.1
20260509022047 65 40 0.0 0.0 0.00 0.07 0.07 100 1015.1
20260509021042 65 40 0.0 0.0 0.00 0.07 0.07 100 1015.1
20260509020125 65 40 0.0 0.0 0.00 0.07 0.07 100 1014.9
20260509015049 65 40 0.0 0.0 0.00 0.07 0.07 100 1015.1
20260509014102 65 40 0.0 0.0 0.00 0.07 0.07 100 1015.4
20260509013055 65 40 0.0 0.0 0.00 0.07 0.07 100 1015.2
20260509012049 65 40 0.0 0.0 0.00 0.07 0.07 100 1015.1
20260509011042 66 40 0.0 0.0 0.00 0.07 0.07 100 1015.1
20260509010107 66 40 0.0 0.0 0.00 0.07 0.07 100 1015.3
20260509005050 66 40 0.0 0.0 0.00 0.07 0.07 100 1015.1
20260509004048 66 40 0.0 0.0 0.00 0.07 0.07 100 1015.0
20260509003040 66 39 0.0 0.0 0.01 0.07 0.07 100 1014.9
20260509002053 66 40 0.0 0.0 0.01 0.07 0.07 100 1014.9
20260509001045 66 40 0.0 0.0 0.02 0.07 0.07 100 1014.7
20260509000110 67 40 0.0 0.0 0.04 0.07 0.07 100 1014.8
20260508235113 67 40 0.0 0.0 0.06 0.07 0.07 100 1014.9
20260508234106 67 40 0.0 0.0 0.06 0.07 0.07 99 1014.8
20260508233058 68 40 0.0 1.0 0.05 0.06 0.06 98 1015.1
20260508232049 69 40 0.0 2.0 0.05 0.06 0.06 97 1015.3
20260508231041 70 32 0.0 5.0 0.04 0.05 0.05 94 1015.1
20260508230139 73 10 1.0 4.0 0.02 0.03 0.03 91 1014.5
20260508225101 74 139 0.0 0.0 0.00 0.01 0.01 95 1014.1
20260508224038 75 139 0.0 0.0 0.00 0.01 0.01 93 1013.6
20260508223053 76 139 0.0 0.0 0.00 0.01 0.01 93 1013.4
20260508222046 76 139 0.0 0.0 0.00 0.01 0.01 90 1013.1
20260508221039 76 139 0.0 0.0 0.00 0.01 0.01 88 1013.0
20260508220123 76 139 0.0 0.0 0.00 0.01 0.01 88 1012.8
20260508215045 76 139 0.0 0.0 0.00 0.01 0.01 88 1012.8
20260508214059 77 139 0.0 0.0 0.00 0.01 0.01 88 1012.5
20260508213053 77 139 0.0 0.0 0.00 0.01 0.01 88 1012.6
20260508212048 77 139 0.0 0.0 0.00 0.01 0.01 88 1012.4
20260508211045 77 139 0.0 0.0 0.00 0.01 0.01 88 1012.4
20260508210129 78 139 0.0 0.0 0.00 0.01 0.01 86 1012.6
20260508205053 78 139 0.0 0.0 0.00 0.01 0.01 87 1012.6
20260508204045 78 139 0.0 1.0 0.00 0.01 0.01 85 1012.7
20260508203041 79 139 0.0 1.0 0.00 0.01 0.01 82 1013.0
20260508202054 79 139 0.0 1.0 0.00 0.01 0.01 83 1013.0
20260508201108 79 139 0.0 1.0 0.00 0.01 0.01 82 1013.1
20260508200109 79 138 0.0 2.0 0.00 0.01 0.01 82 1013.4
20260508195053 78 113 0.0 2.0 0.00 0.02 0.01 82 1013.2
20260508194045 78 112 0.0 2.0 0.00 0.02 0.01 82 1013.4
20260508193043 78 112 0.0 2.0 0.00 0.02 0.01 81 1013.5
20260508192055 78 111 0.0 2.0 0.00 0.02 0.01 82 1013.6
20260508191049 78 106 0.0 2.0 0.00 0.02 0.01 82 1013.8
20260508190112 77 100 0.0 1.0 0.00 0.02 0.01 83 1013.7
20260508185052 77 147 0.0 4.0 0.00 0.03 0.01 84 1014.0
20260508184045 76 147 1.0 4.0 0.00 0.03 0.01 83 1014.2
20260508183057 75 146 0.0 1.0 0.00 0.03 0.01 85 1014.5
20260508182051 75 147 0.0 2.0 0.00 0.03 0.01 86 1014.7
20260508181049 74 147 0.0 1.0 0.00 0.03 0.01 89 1014.7
20260508180132 74 147 0.0 0.0 0.00 0.03 0.01 89 1014.7
20260508175050 74 147 0.0 0.0 0.00 0.34 0.01 91 1014.7
20260508174102 73 147 0.0 0.0 0.00 0.34 0.01 91 1014.8
20260508173054 73 147 0.0 0.0 0.00 0.34 0.01 92 1014.8
20260508172045 73 147 0.0 1.0 0.00 0.34 0.01 93 1015.0
20260508171038 73 147 0.0 0.0 0.00 0.34 0.01 92 1015.1
20260508170122 73 147 0.0 0.0 0.00 0.34 0.01 90 1015.3
20260508164109 73 151 0.0 1.0 0.00 0.34 0.01 89 1015.5
20260508163040 74 150 0.0 1.0 0.00 0.34 0.01 91 1015.6
20260508162037 74 150 0.0 0.0 0.00 0.34 0.01 91 1015.6
20260508161049 75 150 0.0 0.0 0.00 0.34 0.01 93 1015.7
20260508160134 75 150 0.0 1.0 0.00 0.34 0.01 92 1015.6
20260508155038 75 157 1.0 5.0 0.00 0.34 0.01 89 1015.6
20260508154053 75 128 0.0 2.0 0.00 0.34 0.01 92 1015.6
20260508153045 74 124 0.0 5.0 0.00 0.34 0.01 92 1015.5
20260508152038 74 132 0.0 5.0 0.00 0.34 0.01 95 1015.5
20260508151052 73 132 0.0 1.0 0.00 0.34 0.01 97 1015.4
20260508150137 72 130 0.0 1.0 0.00 0.34 0.01 99 1015.4
20260508145040 72 129 1.0 4.0 0.00 0.34 0.01 99 1015.6
20260508144057 72 167 0.0 1.0 0.00 0.34 0.01 100 1015.5
20260508143050 71 193 0.0 1.0 0.00 0.34 0.01 100 1015.6
20260508142043 71 130 0.0 1.0 0.00 0.34 0.01 100 1015.8
20260508141037 71 130 0.0 0.0 0.00 0.34 0.01 100 1015.8
20260508140122 71 130 0.0 1.0 0.00 0.34 0.01 100 1016.0
20260508135044 70 72 0.0 0.0 0.00 0.34 0.01 100 1015.9
20260508134037 70 72 0.0 1.0 0.00 0.34 0.01 100 1016.1
20260508133049 70 152 0.0 0.0 0.00 0.34 0.01 100 1016.0
20260508132045 70 152 0.0 0.0 0.00 0.34 0.01 100 1015.8
20260508131039 70 152 0.0 0.0 0.00 0.34 0.01 100 1015.7
20260508130122 70 152 0.0 0.0 0.00 0.34 0.01 100 1015.6
20260508125045 70 152 0.0 0.0 0.00 0.34 0.01 100 1015.5
20260508124038 70 152 0.0 0.0 0.00 0.34 0.01 100 1015.4
20260508123050 70 152 0.0 0.0 0.01 0.34 0.01 100 1015.6
20260508122041 70 152 0.0 0.0 0.01 0.34 0.01 100 1015.5
20260508121054 70 152 0.0 0.0 0.01 0.34 0.01 100 1015.3
20260508120138 69 152 0.0 0.0 0.01 0.34 0.01 100 1015.2
20260508115041 69 151 0.0 0.0 0.01 0.34 0.01 100 1014.9
20260508114057 69 152 0.0 0.0 0.01 0.34 0.01 100 1014.9
20260508113051 69 153 0.0 0.0 0.00 0.33 0.00 100 1014.8
20260508112045 69 153 0.0 0.0 0.00 0.33 0.00 100 1014.8
20260508111056 69 153 0.0 0.0 0.00 0.33 0.00 100 1014.4
20260508110140 70 153 0.0 0.0 0.00 0.33 0.00 100 1014.2
20260508105043 70 153 0.0 0.0 0.00 0.33 0.00 100 1014.3
20260508104038 70 153 0.0 0.0 0.00 0.33 0.00 100 1014.0
20260508103110 70 153 0.0 0.0 0.00 0.33 0.00 100 1013.9
20260508102044 70 153 0.0 0.0 0.00 0.33 0.00 100 1013.8
20260508101040 70 153 0.0 0.0 0.00 0.33 0.00 100 1013.3
20260508100125 70 153 0.0 0.0 0.00 0.33 0.00 100 1013.5
20260508095108 71 153 0.0 0.0 0.00 0.33 0.00 100 1013.5
20260508094040 71 153 0.0 0.0 0.00 0.33 0.00 100 1013.4
20260508093051 71 153 0.0 0.0 0.00 0.33 0.00 100 1013.1
20260508092044 72 153 0.0 0.0 0.00 0.33 0.00 100 1013.2
20260508091056 72 153 0.0 0.0 0.00 0.33 0.00 100 1013.1
20260508090120 72 153 0.0 0.0 0.00 0.33 0.00 100 1013.0
20260508085042 73 153 0.0 0.0 0.00 0.33 0.00 100 1012.7
20260508084055 73 153 0.0 0.0 0.00 0.33 0.00 100 1012.9
20260508083048 73 153 0.0 1.0 0.00 0.33 0.00 100 1012.9
20260508082043 73 153 0.0 0.0 0.00 0.33 0.00 100 1012.9
20260508081058 73 153 0.0 0.0 0.00 0.33 0.00 100 1013.0
20260508080120 73 153 0.0 0.0 0.00 0.33 0.00 100 1012.9
20260508075046 73 153 0.0 0.0 0.00 0.33 0.00 100 1012.9
20260508074058 73 153 0.0 0.0 0.00 0.33 0.00 100 1012.9
20260508073052 74 153 0.0 0.0 0.00 0.33 0.00 100 1013.0
20260508072043 74 153 0.0 0.0 0.00 0.33 0.00 100 1013.0
20260508071056 74 153 0.0 0.0 0.00 0.33 0.00 100 1013.1
20260508070119 74 153 0.0 0.0 0.00 0.33 0.00 100 1012.9
20260508065045 74 153 0.0 0.0 0.00 0.33 0.00 100 1013.0
20260508064043 74 153 0.0 0.0 0.00 0.33 0.00 100 1013.2
20260508063038 74 153 0.0 0.0 0.00 0.33 0.00 100 1013.2
20260508062050 74 153 0.0 0.0 0.00 0.33 0.00 100 1013.3
20260508061044 74 153 0.0 0.0 0.00 0.33 0.00 100 1013.6
20260508060107 74 153 0.0 0.0 0.00 0.33 0.00 100 1013.7
20260508054055 74 153 0.0 0.0 0.00 0.33 0.00 100 1013.8
20260508053109 74 153 0.0 0.0 0.00 0.33 0.00 100 1013.9
20260508052044 74 153 0.0 0.0 0.00 0.33 0.00 100 1014.0
20260508051038 74 153 0.0 0.0 0.00 0.33 0.00 100 1014.1
20260508050120 74 153 0.0 0.0 0.00 0.33 0.00 100 1014.1
20260508045043 74 153 0.0 0.0 0.00 0.33 0.00 100 1014.0
20260508044055 74 153 0.0 0.0 0.00 0.33 0.00 100 1014.1
20260508043050 74 153 0.0 0.0 0.00 0.33 0.00 100 1014.0